Time,TemperatureF,DewpointF,PressureIn,WindDirection,WindDirectionDegrees,WindSpeedMPH,WindSpeedGustMPH,Humidity,HourlyPrecipIn,Conditions,Clouds,dailyrainin,SoftwareType,DateUTC
2013-01-05 00:00:00,43.5,33.3,30.92,SSE,163,5.0,9.0,67,0.00,,,0.00,Weather View 32 v70,2013-01-05 06:00:00,
2013-01-05 00:05:00,43.5,33.6,30.93,SSW,208,5.0,9.0,68,0.00,,,0.00,Weather View 32 v70,2013-01-05 06:05:00,
2013-01-05 00:10:00,43.4,33.9,30.92,South,186,4.0,9.0,69,0.00,,,0.00,Weather View 32 v70,2013-01-05 06:10:00,
2013-01-05 00:15:00,43.0,34.2,30.92,South,186,3.0,9.0,71,0.00,,,0.00,Weather View 32 v70,2013-01-05 06:15:00,
2013-01-05 00:20:00,42.6,34.5,30.92,SSW,208,3.0,9.0,73,0.00,,,0.00,Weather View 32 v70,2013-01-05 06:20:00,
2013-01-05 00:25:00,42.5,34.8,30.92,SSW,208,3.0,9.0,74,0.00,,,0.00,Weather View 32 v70,2013-01-05 06:25:00,
2013-01-05 00:30:00,42.5,35.1,30.92,SSW,208,3.0,9.0,75,0.00,,,0.00,Weather View 32 v70,2013-01-05 06:30:00,
2013-01-05 00:35:00,42.4,35.4,30.92,SSW,208,4.0,9.0,76,0.00,,,0.00,Weather View 32 v70,2013-01-05 06:35:00,
2013-01-05 00:40:00,42.5,35.5,30.92,SSE,163,4.0,9.0,76,0.00,,,0.00,Weather View 32 v70,2013-01-05 06:40:00,
2013-01-05 00:45:00,42.6,35.6,30.92,SSW,208,5.0,9.0,76,0.00,,,0.00,Weather View 32 v70,2013-01-05 06:45:00,
2013-01-05 00:50:00,42.7,36.0,30.92,SSW,208,5.0,9.0,77,0.00,,,0.00,Weather View 32 v70,2013-01-05 06:50:00,
2013-01-05 00:55:00,42.9,36.2,30.92,South,186,6.0,9.0,77,0.00,,,0.00,Weather View 32 v70,2013-01-05 06:55:00,
2013-01-05 01:00:00,42.9,36.2,30.91,SSW,208,4.0,9.0,77,0.00,,,0.00,Weather View 32 v70,2013-01-05 07:00:00,
2013-01-05 01:05:00,42.9,36.5,30.91,SSW,208,3.0,9.0,78,0.00,,,0.00,Weather View 32 v70,2013-01-05 07:05:00,
2013-01-05 01:10:00,42.9,36.8,30.91,SSW,208,6.0,9.0,79,0.00,,,0.00,Weather View 32 v70,2013-01-05 07:10:00,
2013-01-05 01:15:00,42.9,37.1,30.91,SSW,208,3.0,9.0,80,0.00,,,0.00,Weather View 32 v70,2013-01-05 07:15:00,
2013-01-05 01:20:00,43.1,37.3,30.91,SW,231,5.0,9.0,80,0.00,,,0.00,Weather View 32 v70,2013-01-05 07:20:00,
2013-01-05 01:25:00,43.1,37.3,30.91,SW,231,6.0,9.0,80,0.00,,,0.00,Weather View 32 v70,2013-01-05 07:25:00,
2013-01-05 01:30:00,43.0,37.6,30.91,SW,231,6.0,9.0,81,0.00,,,0.00,Weather View 32 v70,2013-01-05 07:30:00,
2013-01-05 01:35:00,43.1,37.7,30.91,SW,231,8.0,9.0,81,0.00,,,0.00,Weather View 32 v70,2013-01-05 07:35:00,
2013-01-05 01:40:00,43.0,37.9,30.92,SW,231,8.0,10.0,82,0.00,,,0.00,Weather View 32 v70,2013-01-05 07:40:00,
2013-01-05 01:45:00,42.9,37.8,30.92,SW,231,8.0,10.0,82,0.00,,,0.00,Weather View 32 v70,2013-01-05 07:45:00,
2013-01-05 01:50:00,43.0,37.9,30.92,SW,231,6.0,11.0,82,0.00,,,0.00,Weather View 32 v70,2013-01-05 07:50:00,
2013-01-05 01:55:00,43.0,37.9,30.92,WSW,253,6.0,12.0,82,0.00,,,0.00,Weather View 32 v70,2013-01-05 07:55:00,
2013-01-05 02:00:00,43.0,37.9,30.91,WSW,253,6.0,12.0,82,0.00,,,0.00,Weather View 32 v70,2013-01-05 08:00:00,
2013-01-05 02:05:00,42.9,37.5,30.91,SW,231,8.0,12.0,81,0.00,,,0.00,Weather View 32 v70,2013-01-05 08:05:00,
2013-01-05 02:10:00,42.8,37.4,30.91,SW,231,6.0,13.0,81,0.00,,,0.00,Weather View 32 v70,2013-01-05 08:10:00,
2013-01-05 02:15:00,42.8,37.7,30.92,WSW,253,6.0,13.0,82,0.00,,,0.00,Weather View 32 v70,2013-01-05 08:15:00,
2013-01-05 02:20:00,42.6,37.8,30.92,WSW,253,6.0,13.0,83,0.00,,,0.00,Weather View 32 v70,2013-01-05 08:20:00,
2013-01-05 02:25:00,42.7,37.9,30.91,WSW,253,6.0,13.0,83,0.00,,,0.00,Weather View 32 v70,2013-01-05 08:25:00,
2013-01-05 02:30:00,42.7,37.9,30.91,WSW,253,5.0,13.0,83,0.00,,,0.00,Weather View 32 v70,2013-01-05 08:30:00,
2013-01-05 02:35:00,42.7,37.6,30.91,WSW,253,5.0,13.0,82,0.00,,,0.00,Weather View 32 v70,2013-01-05 08:35:00,
2013-01-05 02:40:00,42.7,37.3,30.91,WSW,253,6.0,13.0,81,0.00,,,0.00,Weather View 32 v70,2013-01-05 08:40:00,
2013-01-05 02:45:00,42.7,37.3,30.91,WSW,253,7.0,13.0,81,0.00,,,0.00,Weather View 32 v70,2013-01-05 08:45:00,
2013-01-05 02:50:00,42.7,37.3,30.91,WSW,253,5.0,13.0,81,0.00,,,0.00,Weather View 32 v70,2013-01-05 08:50:00,
2013-01-05 02:55:00,42.6,37.2,30.92,West,276,5.0,13.0,81,0.00,,,0.00,Weather View 32 v70,2013-01-05 08:55:00,
2013-01-05 03:00:00,42.7,37.3,30.91,WSW,253,6.0,13.0,81,0.00,,,0.00,Weather View 32 v70,2013-01-05 09:00:00,
2013-01-05 03:05:00,42.7,37.3,30.91,West,276,5.0,13.0,81,0.00,,,0.00,Weather View 32 v70,2013-01-05 09:05:00,
2013-01-05 03:10:00,42.6,37.2,30.91,WSW,253,5.0,11.0,81,0.00,,,0.00,Weather View 32 v70,2013-01-05 09:10:00,
2013-01-05 03:15:00,42.5,37.1,30.92,WSW,253,5.0,10.0,81,0.00,,,0.00,Weather View 32 v70,2013-01-05 09:15:00,
2013-01-05 03:20:00,42.4,37.3,30.92,WSW,253,6.0,10.0,82,0.00,,,0.00,Weather View 32 v70,2013-01-05 09:20:00,
2013-01-05 03:25:00,42.5,37.4,30.92,WSW,253,4.0,10.0,82,0.00,,,0.00,Weather View 32 v70,2013-01-05 09:25:00,
2013-01-05 03:30:00,42.5,37.1,30.92,WSW,253,3.0,10.0,81,0.00,,,0.00,Weather View 32 v70,2013-01-05 09:30:00,
2013-01-05 03:35:00,42.4,37.3,30.92,West,276,5.0,10.0,82,0.00,,,0.00,Weather View 32 v70,2013-01-05 09:35:00,
2013-01-05 03:40:00,42.3,37.2,30.92,SW,231,5.0,10.0,82,0.00,,,0.00,Weather View 32 v70,2013-01-05 09:40:00,
2013-01-05 03:45:00,42.2,37.1,30.92,SSW,208,3.0,10.0,82,0.00,,,0.00,Weather View 32 v70,2013-01-05 09:45:00,
2013-01-05 03:50:00,42.0,37.2,30.92,WSW,253,6.0,9.0,83,0.00,,,0.00,Weather View 32 v70,2013-01-05 09:50:00,
2013-01-05 03:55:00,42.0,37.2,30.92,SSW,208,4.0,9.0,83,0.00,,,0.00,Weather View 32 v70,2013-01-05 09:55:00,
2013-01-05 04:00:00,41.9,37.1,30.91,WSW,253,3.0,10.0,83,0.00,,,0.00,Weather View 32 v70,2013-01-05 10:00:00,
2013-01-05 04:05:00,41.8,37.3,30.92,SW,231,3.0,10.0,84,0.00,,,0.00,Weather View 32 v70,2013-01-05 10:05:00,
2013-01-05 04:10:00,41.8,37.3,30.91,SSW,208,4.0,10.0,84,0.00,,,0.00,Weather View 32 v70,2013-01-05 10:10:00,
2013-01-05 04:15:00,41.6,37.1,30.91,South,186,3.0,10.0,84,0.00,,,0.00,Weather View 32 v70,2013-01-05 10:15:00,
2013-01-05 04:20:00,41.5,37.3,30.91,South,186,3.0,10.0,85,0.00,,,0.00,Weather View 32 v70,2013-01-05 10:20:00,
2013-01-05 04:25:00,41.5,37.3,30.91,SSW,208,3.0,10.0,85,0.00,,,0.00,Weather View 32 v70,2013-01-05 10:25:00,
2013-01-05 04:31:00,41.4,37.5,30.90,SSE,163,3.0,10.0,86,0.00,,,0.00,Weather View 32 v70,2013-01-05 10:31:00,
2013-01-05 04:36:00,41.3,37.7,30.90,SSE,163,4.0,10.0,87,0.00,,,0.00,Weather View 32 v70,2013-01-05 10:36:00,
2013-01-05 04:41:00,41.2,37.9,30.90,SSE,163,3.0,10.0,88,0.00,,,0.00,Weather View 32 v70,2013-01-05 10:41:00,
2013-01-05 04:46:00,41.1,37.8,30.90,SE,141,3.0,10.0,88,0.00,,,0.00,Weather View 32 v70,2013-01-05 10:46:00,
2013-01-05 04:51:00,41.0,38.0,30.90,SSE,163,4.0,10.0,89,0.00,,,0.00,Weather View 32 v70,2013-01-05 10:51:00,
2013-01-05 04:56:00,40.9,37.9,30.89,South,186,4.0,10.0,89,0.00,,,0.00,Weather View 32 v70,2013-01-05 10:56:00,
2013-01-05 05:01:00,40.8,38.1,30.89,SSE,163,6.0,7.0,90,0.00,,,0.00,Weather View 32 v70,2013-01-05 11:01:00,
2013-01-05 05:06:00,40.7,38.0,30.89,SSE,163,4.0,7.0,90,0.00,,,0.00,Weather View 32 v70,2013-01-05 11:06:00,
2013-01-05 05:11:00,40.6,37.9,30.89,SSW,208,3.0,7.0,90,0.00,,,0.00,Weather View 32 v70,2013-01-05 11:11:00,
2013-01-05 05:16:00,40.4,38.0,30.89,South,186,5.0,8.0,91,0.00,,,0.00,Weather View 32 v70,2013-01-05 11:16:00,
2013-01-05 05:21:00,40.2,37.8,30.89,SSE,163,6.0,9.0,91,0.00,,,0.00,Weather View 32 v70,2013-01-05 11:21:00,
2013-01-05 05:26:00,40.1,37.7,30.89,SE,141,3.0,9.0,91,0.00,,,0.00,Weather View 32 v70,2013-01-05 11:26:00,
2013-01-05 05:31:00,40.0,37.6,30.89,SSE,163,5.0,9.0,91,0.00,,,0.00,Weather View 32 v70,2013-01-05 11:31:00,
2013-01-05 05:36:00,39.8,37.7,30.89,SE,141,4.0,9.0,92,0.00,,,0.00,Weather View 32 v70,2013-01-05 11:36:00,
2013-01-05 05:41:00,39.7,37.6,30.89,South,186,4.0,9.0,92,0.00,,,0.00,Weather View 32 v70,2013-01-05 11:41:00,
2013-01-05 05:46:00,39.4,37.5,30.89,South,186,4.0,9.0,93,0.00,,,0.00,Weather View 32 v70,2013-01-05 11:46:00,
2013-01-05 05:51:00,39.2,37.3,30.89,South,186,2.0,9.0,93,0.00,,,0.00,Weather View 32 v70,2013-01-05 11:51:00,
2013-01-05 05:56:00,39.1,37.2,30.89,South,186,2.0,9.0,93,0.00,,,0.00,Weather View 32 v70,2013-01-05 11:56:00,
2013-01-05 06:01:00,38.8,37.2,30.89,South,186,3.0,9.0,94,0.00,,,0.00,Weather View 32 v70,2013-01-05 12:01:00,
2013-01-05 06:06:00,38.7,37.1,30.89,ESE,118,1.0,9.0,94,0.00,,,0.00,Weather View 32 v70,2013-01-05 12:06:00,
2013-01-05 06:11:00,38.6,37.0,30.89,SE,141,2.0,9.0,94,0.00,,,0.00,Weather View 32 v70,2013-01-05 12:11:00,
2013-01-05 06:16:00,38.3,36.7,30.89,ESE,118,3.0,9.0,94,0.00,,,0.00,Weather View 32 v70,2013-01-05 12:16:00,
2013-01-05 06:21:00,38.2,36.9,30.89,ESE,118,4.0,8.0,95,0.00,,,0.00,Weather View 32 v70,2013-01-05 12:21:00,
2013-01-05 06:26:00,38.0,36.7,30.89,SE,141,3.0,7.0,95,0.00,,,0.00,Weather View 32 v70,2013-01-05 12:26:00,
2013-01-05 06:31:00,37.8,36.5,30.88,SE,141,5.0,7.0,95,0.00,,,0.00,Weather View 32 v70,2013-01-05 12:31:00,
2013-01-05 06:36:00,37.8,36.8,30.88,SSE,163,4.0,7.0,96,0.00,,,0.00,Weather View 32 v70,2013-01-05 12:36:00,
2013-01-05 06:41:00,37.8,36.8,30.89,SE,141,3.0,6.0,96,0.00,,,0.00,Weather View 32 v70,2013-01-05 12:41:00,
2013-01-05 06:46:00,37.5,36.7,30.89,SSE,163,3.0,6.0,97,0.00,,,0.00,Weather View 32 v70,2013-01-05 12:46:00,
2013-01-05 06:51:00,37.3,36.5,30.89,SSE,163,3.0,6.0,97,0.00,,,0.00,Weather View 32 v70,2013-01-05 12:51:00,
2013-01-05 06:56:00,37.1,36.3,30.88,South,186,3.0,6.0,97,0.00,,,0.00,Weather View 32 v70,2013-01-05 12:56:00,
2013-01-05 07:01:00,37.0,36.2,30.89,West,276,2.0,6.0,97,0.00,,,0.00,Weather View 32 v70,2013-01-05 13:01:00,
2013-01-05 07:06:00,37.1,36.6,30.89,WSW,253,3.0,6.0,98,0.00,,,0.00,Weather View 32 v70,2013-01-05 13:06:00,
2013-01-05 07:11:00,37.3,36.8,30.89,West,276,3.0,6.0,98,0.00,,,0.00,Weather View 32 v70,2013-01-05 13:11:00,
2013-01-05 07:16:00,37.3,36.8,30.90,West,276,4.0,6.0,98,0.00,,,0.00,Weather View 32 v70,2013-01-05 13:16:00,
2013-01-05 07:21:00,37.4,36.9,30.90,WSW,253,2.0,6.0,98,0.00,,,0.00,Weather View 32 v70,2013-01-05 13:21:00,
2013-01-05 07:26:00,37.5,37.2,30.89,WSW,253,1.0,6.0,99,0.00,,,0.00,Weather View 32 v70,2013-01-05 13:26:00,
2013-01-05 07:31:00,37.6,37.3,30.89,West,276,0.0,6.0,99,0.00,,,0.00,Weather View 32 v70,2013-01-05 13:31:00,
2013-01-05 07:36:00,37.8,37.5,30.90,SSW,208,2.0,5.0,99,0.00,,,0.00,Weather View 32 v70,2013-01-05 13:36:00,
2013-01-05 07:41:00,37.9,37.6,30.90,SW,231,3.0,5.0,99,0.00,,,0.00,Weather View 32 v70,2013-01-05 13:41:00,
2013-01-05 07:46:00,38.2,37.9,30.90,South,186,2.0,5.0,99,0.00,,,0.00,Weather View 32 v70,2013-01-05 13:46:00,
2013-01-05 07:51:00,38.3,38.0,30.90,SW,231,4.0,6.0,99,0.00,,,0.00,Weather View 32 v70,2013-01-05 13:51:00,
2013-01-05 07:56:00,38.6,38.3,30.90,SSW,208,4.0,6.0,99,0.00,,,0.00,Weather View 32 v70,2013-01-05 13:56:00,
2013-01-05 08:01:00,38.8,38.5,30.90,SSW,208,5.0,6.0,99,0.00,,,0.00,Weather View 32 v70,2013-01-05 14:01:00,
2013-01-05 08:06:00,38.9,38.6,30.90,SSW,208,9.0,12.0,99,0.00,,,0.00,Weather View 32 v70,2013-01-05 14:06:00,
2013-01-05 08:11:00,39.0,38.7,30.91,SSW,208,5.0,13.0,99,0.00,,,0.00,Weather View 32 v70,2013-01-05 14:11:00,
2013-01-05 08:16:00,39.0,38.7,30.91,SW,231,5.0,13.0,99,0.00,,,0.00,Weather View 32 v70,2013-01-05 14:16:00,
2013-01-05 08:21:00,39.1,38.8,30.91,South,186,8.0,13.0,99,0.00,,,0.00,Weather View 32 v70,2013-01-05 14:21:00,
2013-01-05 08:26:00,39.2,38.9,30.91,SSW,208,5.0,13.0,99,0.00,,,0.00,Weather View 32 v70,2013-01-05 14:26:00,
2013-01-05 08:31:00,39.3,38.8,30.91,SSW,208,6.0,13.0,98,0.00,,,0.00,Weather View 32 v70,2013-01-05 14:31:00,
2013-01-05 08:36:00,39.3,38.8,30.91,SSW,208,7.0,13.0,98,0.00,,,0.00,Weather View 32 v70,2013-01-05 14:36:00,
2013-01-05 08:41:00,39.3,38.8,30.91,South,186,4.0,13.0,98,0.00,,,0.00,Weather View 32 v70,2013-01-05 14:41:00,
2013-01-05 08:46:00,39.3,38.8,30.91,SSW,208,6.0,13.0,98,0.00,,,0.00,Weather View 32 v70,2013-01-05 14:46:00,
2013-01-05 08:51:00,39.4,38.9,30.91,SSW,208,8.0,13.0,98,0.00,,,0.00,Weather View 32 v70,2013-01-05 14:51:00,
2013-01-05 08:56:00,39.9,39.4,30.91,South,186,5.0,13.0,98,0.00,,,0.00,Weather View 32 v70,2013-01-05 14:56:00,
2013-01-05 09:01:00,39.9,39.1,30.91,SSW,208,4.0,13.0,97,0.00,,,0.00,Weather View 32 v70,2013-01-05 15:01:00,
2013-01-05 09:06:00,39.7,38.9,30.91,SSW,208,5.0,13.0,97,0.00,,,0.00,Weather View 32 v70,2013-01-05 15:06:00,
2013-01-05 09:11:00,39.7,38.9,30.91,SSW,208,7.0,10.0,97,0.00,,,0.00,Weather View 32 v70,2013-01-05 15:11:00,
2013-01-05 09:16:00,39.9,38.9,30.91,SW,231,6.0,10.0,96,0.00,,,0.00,Weather View 32 v70,2013-01-05 15:16:00,
2013-01-05 09:21:00,40.3,39.2,30.91,SSW,208,3.0,10.0,96,0.00,,,0.00,Weather View 32 v70,2013-01-05 15:21:00,
2013-01-05 09:26:00,40.3,39.2,30.91,South,186,6.0,10.0,96,0.00,,,0.00,Weather View 32 v70,2013-01-05 15:26:00,
2013-01-05 09:31:00,39.8,38.8,30.91,SSW,208,6.0,10.0,96,0.00,,,0.00,Weather View 32 v70,2013-01-05 15:31:00,
2013-01-05 09:36:00,39.6,38.3,30.91,WSW,253,8.0,11.0,95,0.00,,,0.00,Weather View 32 v70,2013-01-05 15:36:00,
2013-01-05 09:41:00,39.5,38.2,30.91,SW,231,7.0,11.0,95,0.00,,,0.00,Weather View 32 v70,2013-01-05 15:41:00,
2013-01-05 09:46:00,39.8,38.8,30.92,SSW,208,6.0,11.0,96,0.00,,,0.00,Weather View 32 v70,2013-01-05 15:46:00,
2013-01-05 09:51:00,39.5,38.5,30.92,SW,231,8.0,11.0,96,0.00,,,0.00,Weather View 32 v70,2013-01-05 15:51:00,
2013-01-05 09:56:00,39.7,38.7,30.91,WSW,253,6.0,11.0,96,0.00,,,0.00,Weather View 32 v70,2013-01-05 15:56:00,
2013-01-05 10:01:00,39.5,38.5,30.91,SSW,208,8.0,11.0,96,0.00,,,0.00,Weather View 32 v70,2013-01-05 16:01:00,
2013-01-05 10:06:00,39.6,38.6,30.91,SW,231,7.0,11.0,96,0.00,,,0.00,Weather View 32 v70,2013-01-05 16:06:00,
2013-01-05 10:11:00,39.9,38.9,30.91,SSW,208,5.0,11.0,96,0.00,,,0.00,Weather View 32 v70,2013-01-05 16:11:00,
2013-01-05 10:16:00,40.2,38.9,30.91,SSW,208,5.0,11.0,95,0.00,,,0.00,Weather View 32 v70,2013-01-05 16:16:00,
2013-01-05 10:21:00,40.3,39.0,30.91,SSW,208,6.0,11.0,95,0.00,,,0.00,Weather View 32 v70,2013-01-05 16:21:00,
2013-01-05 10:26:00,40.0,38.7,30.91,WNW,298,6.0,11.0,95,0.00,,,0.00,Weather View 32 v70,2013-01-05 16:26:00,
2013-01-05 10:31:00,39.9,38.6,30.91,SSW,208,4.0,11.0,95,0.00,,,0.00,Weather View 32 v70,2013-01-05 16:31:00,
2013-01-05 10:36:00,39.5,38.2,30.90,West,276,6.0,10.0,95,0.00,,,0.00,Weather View 32 v70,2013-01-05 16:36:00,
2013-01-05 10:41:00,39.4,38.1,30.90,West,276,7.0,10.0,95,0.00,,,0.00,Weather View 32 v70,2013-01-05 16:41:00,
2013-01-05 10:46:00,39.6,38.3,30.90,West,276,4.0,10.0,95,0.00,,,0.00,Weather View 32 v70,2013-01-05 16:46:00,
2013-01-05 10:51:00,39.9,38.6,30.91,WSW,253,6.0,10.0,95,0.00,,,0.00,Weather View 32 v70,2013-01-05 16:51:00,
2013-01-05 10:56:00,39.7,38.4,30.90,SW,231,5.0,10.0,95,0.00,,,0.00,Weather View 32 v70,2013-01-05 16:56:00,
2013-01-05 11:01:00,40.0,38.7,30.90,SSW,208,6.0,10.0,95,0.00,,,0.00,Weather View 32 v70,2013-01-05 17:01:00,
2013-01-05 11:06:00,40.3,39.0,30.90,WNW,298,3.0,10.0,95,0.00,,,0.00,Weather View 32 v70,2013-01-05 17:06:00,
2013-01-05 11:11:00,40.4,38.8,30.90,SW,231,8.0,10.0,94,0.00,,,0.00,Weather View 32 v70,2013-01-05 17:11:00,
2013-01-05 11:16:00,40.5,38.6,30.90,SSW,208,5.0,10.0,93,0.00,,,0.00,Weather View 32 v70,2013-01-05 17:16:00,
2013-01-05 11:21:00,40.6,38.7,30.90,SW,231,6.0,10.0,93,0.00,,,0.00,Weather View 32 v70,2013-01-05 17:21:00,
2013-01-05 11:26:00,40.4,38.5,30.90,WSW,253,5.0,10.0,93,0.00,,,0.00,Weather View 32 v70,2013-01-05 17:26:00,
2013-01-05 11:31:00,40.4,38.3,30.90,WSW,253,8.0,10.0,92,0.00,,,0.00,Weather View 32 v70,2013-01-05 17:31:00,
2013-01-05 11:36:00,40.4,38.3,30.90,WSW,253,6.0,10.0,92,0.00,,,0.00,Weather View 32 v70,2013-01-05 17:36:00,
2013-01-05 11:41:00,40.4,38.3,30.89,WSW,253,6.0,10.0,92,0.00,,,0.00,Weather View 32 v70,2013-01-05 17:41:00,
2013-01-05 11:46:00,40.6,38.5,30.89,West,276,8.0,10.0,92,0.00,,,0.00,Weather View 32 v70,2013-01-05 17:46:00,
2013-01-05 11:51:00,40.8,38.7,30.88,WSW,253,4.0,10.0,92,0.00,,,0.00,Weather View 32 v70,2013-01-05 17:51:00,
2013-01-05 11:56:00,41.0,38.9,30.88,WNW,298,2.0,10.0,92,0.00,,,0.00,Weather View 32 v70,2013-01-05 17:56:00,
2013-01-05 12:01:00,41.4,39.0,30.88,SW,231,5.0,10.0,91,0.00,,,0.00,Weather View 32 v70,2013-01-05 18:01:00,
2013-01-05 12:06:00,41.1,38.7,30.87,SW,231,5.0,10.0,91,0.00,,,0.00,Weather View 32 v70,2013-01-05 18:06:00,
2013-01-05 12:11:00,41.3,38.6,30.87,SW,231,6.0,10.0,90,0.00,,,0.00,Weather View 32 v70,2013-01-05 18:11:00,
2013-01-05 12:16:00,41.7,39.0,30.86,WSW,253,4.0,10.0,90,0.00,,,0.00,Weather View 32 v70,2013-01-05 18:16:00,
2013-01-05 12:21:00,41.8,38.8,30.86,SW,231,7.0,10.0,89,0.00,,,0.00,Weather View 32 v70,2013-01-05 18:21:00,
2013-01-05 12:26:00,42.2,39.2,30.86,SW,231,5.0,10.0,89,0.00,,,0.00,Weather View 32 v70,2013-01-05 18:26:00,
2013-01-05 12:31:00,42.2,38.9,30.86,WSW,253,7.0,10.0,88,0.00,,,0.00,Weather View 32 v70,2013-01-05 18:31:00,
2013-01-05 12:36:00,42.4,39.1,30.85,WSW,253,4.0,10.0,88,0.00,,,0.00,Weather View 32 v70,2013-01-05 18:36:00,
2013-01-05 12:41:00,42.9,39.3,30.84,SW,231,8.0,10.0,87,0.00,,,0.00,Weather View 32 v70,2013-01-05 18:41:00,
2013-01-05 12:46:00,42.9,39.0,30.84,SSW,208,5.0,10.0,86,0.00,,,0.00,Weather View 32 v70,2013-01-05 18:46:00,
2013-01-05 12:51:00,42.8,38.9,30.84,WSW,253,5.0,10.0,86,0.00,,,0.00,Weather View 32 v70,2013-01-05 18:51:00,
2013-01-05 12:56:00,43.4,39.2,30.83,SW,231,6.0,10.0,85,0.00,,,0.00,Weather View 32 v70,2013-01-05 18:56:00,
2013-01-05 13:01:00,43.8,39.6,30.83,SSE,163,4.0,10.0,85,0.00,,,0.00,Weather View 32 v70,2013-01-05 19:01:00,
2013-01-05 13:06:00,43.3,38.8,30.82,SSE,163,6.0,10.0,84,0.00,,,0.00,Weather View 32 v70,2013-01-05 19:06:00,
2013-01-05 13:11:00,44.1,39.6,30.81,South,186,3.0,10.0,84,0.00,,,0.00,Weather View 32 v70,2013-01-05 19:11:00,
2013-01-05 13:16:00,44.3,39.5,30.81,SSW,208,3.0,10.0,83,0.00,,,0.00,Weather View 32 v70,2013-01-05 19:16:00,
2013-01-05 13:21:00,44.6,39.1,30.81,SE,141,6.0,10.0,81,0.00,,,0.00,Weather View 32 v70,2013-01-05 19:21:00,
2013-01-05 13:26:00,45.2,39.4,30.81,South,186,9.0,11.0,80,0.00,,,0.00,Weather View 32 v70,2013-01-05 19:26:00,
2013-01-05 13:31:00,45.5,39.4,30.80,South,186,8.0,11.0,79,0.00,,,0.00,Weather View 32 v70,2013-01-05 19:31:00,
2013-01-05 13:36:00,45.6,39.1,30.79,SSW,208,5.0,11.0,78,0.00,,,0.00,Weather View 32 v70,2013-01-05 19:36:00,
2013-01-05 13:41:00,46.6,39.8,30.79,SSW,208,7.0,13.0,77,0.00,,,0.00,Weather View 32 v70,2013-01-05 19:41:00,
2013-01-05 13:46:00,46.8,39.3,30.79,SSW,208,6.0,13.0,75,0.00,,,0.00,Weather View 32 v70,2013-01-05 19:46:00,
2013-01-05 13:51:00,47.4,39.9,30.80,South,186,6.0,13.0,75,0.00,,,0.00,Weather View 32 v70,2013-01-05 19:51:00,
2013-01-05 13:56:00,47.2,39.3,30.80,SSW,208,8.0,13.0,74,0.00,,,0.00,Weather View 32 v70,2013-01-05 19:56:00,
2013-01-05 14:01:00,47.6,39.4,30.79,WSW,253,8.0,13.0,73,0.00,,,0.00,Weather View 32 v70,2013-01-05 20:01:00,
2013-01-05 14:06:00,47.6,39.4,30.79,SW,231,6.0,13.0,73,0.00,,,0.00,Weather View 32 v70,2013-01-05 20:06:00,
2013-01-05 14:11:00,48.3,39.7,30.78,SSW,208,7.0,14.0,72,0.00,,,0.00,Weather View 32 v70,2013-01-05 20:11:00,
2013-01-05 14:16:00,47.8,38.8,30.78,South,186,6.0,14.0,71,0.00,,,0.00,Weather View 32 v70,2013-01-05 20:16:00,
2013-01-05 14:21:00,47.9,38.9,30.79,SW,231,12.0,14.0,71,0.00,,,0.00,Weather View 32 v70,2013-01-05 20:21:00,
2013-01-05 14:26:00,48.3,39.3,30.79,WSW,253,6.0,14.0,71,0.00,,,0.00,Weather View 32 v70,2013-01-05 20:26:00,
2013-01-05 14:31:00,48.5,39.1,30.79,SW,231,8.0,14.0,70,0.00,,,0.00,Weather View 32 v70,2013-01-05 20:31:00,
2013-01-05 14:36:00,48.6,39.2,30.78,SSW,208,9.0,14.0,70,0.00,,,0.00,Weather View 32 v70,2013-01-05 20:36:00,
2013-01-05 14:41:00,49.1,39.7,30.78,SSW,208,5.0,14.0,70,0.00,,,0.00,Weather View 32 v70,2013-01-05 20:41:00,
2013-01-05 14:46:00,49.2,39.8,30.78,SSE,163,4.0,14.0,70,0.00,,,0.00,Weather View 32 v70,2013-01-05 20:46:00,
2013-01-05 14:51:00,49.7,39.9,30.78,SSW,208,8.0,14.0,69,0.00,,,0.00,Weather View 32 v70,2013-01-05 20:51:00,
2013-01-05 14:56:00,49.7,39.5,30.78,SSW,208,6.0,14.0,68,0.00,,,0.00,Weather View 32 v70,2013-01-05 20:56:00,
2013-01-05 15:01:00,49.4,39.3,30.78,South,186,8.0,14.0,68,0.00,,,0.00,Weather View 32 v70,2013-01-05 21:01:00,
2013-01-05 15:06:00,49.3,39.5,30.78,WSW,253,5.0,14.0,69,0.00,,,0.00,Weather View 32 v70,2013-01-05 21:06:00,
2013-01-05 15:11:00,49.3,38.8,30.78,SSW,208,8.0,14.0,67,0.00,,,0.00,Weather View 32 v70,2013-01-05 21:11:00,
2013-01-05 15:16:00,49.6,39.1,30.78,SSW,208,10.0,14.0,67,0.00,,,0.00,Weather View 32 v70,2013-01-05 21:16:00,
2013-01-05 15:21:00,49.3,38.4,30.79,SSW,208,9.0,13.0,66,0.00,,,0.00,Weather View 32 v70,2013-01-05 21:21:00,
2013-01-05 15:26:00,49.4,38.9,30.79,SSW,208,7.0,12.0,67,0.00,,,0.00,Weather View 32 v70,2013-01-05 21:26:00,
2013-01-05 15:31:00,49.5,39.0,30.78,South,186,6.0,12.0,67,0.00,,,0.00,Weather View 32 v70,2013-01-05 21:31:00,
2013-01-05 15:36:00,49.7,38.8,30.78,SW,231,10.0,12.0,66,0.00,,,0.00,Weather View 32 v70,2013-01-05 21:36:00,
2013-01-05 15:41:00,50.1,39.2,30.79,South,186,4.0,12.0,66,0.00,,,0.00,Weather View 32 v70,2013-01-05 21:41:00,
2013-01-05 15:46:00,49.5,38.2,30.79,SW,231,8.0,12.0,65,0.00,,,0.00,Weather View 32 v70,2013-01-05 21:46:00,
2013-01-05 15:51:00,49.5,38.6,30.79,SSW,208,6.0,12.0,66,0.00,,,0.00,Weather View 32 v70,2013-01-05 21:51:00,
2013-01-05 15:56:00,49.7,38.8,30.78,South,186,8.0,12.0,66,0.00,,,0.00,Weather View 32 v70,2013-01-05 21:56:00,
2013-01-05 16:01:00,49.6,38.3,30.78,SSW,208,7.0,12.0,65,0.00,,,0.00,Weather View 32 v70,2013-01-05 22:01:00,
2013-01-05 16:06:00,49.9,38.6,30.78,South,186,6.0,11.0,65,0.00,,,0.00,Weather View 32 v70,2013-01-05 22:06:00,
2013-01-05 16:11:00,49.9,38.2,30.78,SSW,208,6.0,11.0,64,0.00,,,0.00,Weather View 32 v70,2013-01-05 22:11:00,
2013-01-05 16:16:00,49.5,38.2,30.79,WSW,253,8.0,11.0,65,0.00,,,0.00,Weather View 32 v70,2013-01-05 22:16:00,
2013-01-05 16:21:00,49.9,38.6,30.79,WSW,253,6.0,11.0,65,0.00,,,0.00,Weather View 32 v70,2013-01-05 22:21:00,
2013-01-05 16:26:00,50.0,39.1,30.78,WSW,253,6.0,11.0,66,0.00,,,0.00,Weather View 32 v70,2013-01-05 22:26:00,
2013-01-05 16:31:00,49.8,38.5,30.79,SSW,208,3.0,11.0,65,0.00,,,0.00,Weather View 32 v70,2013-01-05 22:31:00,
2013-01-05 16:36:00,49.6,38.3,30.79,WSW,253,6.0,11.0,65,0.00,,,0.00,Weather View 32 v70,2013-01-05 22:36:00,
2013-01-05 16:41:00,49.8,38.5,30.79,WSW,253,5.0,11.0,65,0.00,,,0.00,Weather View 32 v70,2013-01-05 22:41:00,
2013-01-05 16:46:00,50.0,39.1,30.79,SW,231,2.0,11.0,66,0.00,,,0.00,Weather View 32 v70,2013-01-05 22:46:00,
2013-01-05 16:51:00,49.6,38.3,30.79,SW,231,5.0,10.0,65,0.00,,,0.00,Weather View 32 v70,2013-01-05 22:51:00,
2013-01-05 16:56:00,49.6,38.7,30.79,SW,231,4.0,10.0,66,0.00,,,0.00,Weather View 32 v70,2013-01-05 22:56:00,
2013-01-05 17:01:00,49.4,38.1,30.79,WSW,253,5.0,10.0,65,0.00,,,0.00,Weather View 32 v70,2013-01-05 23:01:00,
2013-01-05 17:06:00,49.4,38.5,30.80,SW,231,3.0,10.0,66,0.00,,,0.00,Weather View 32 v70,2013-01-05 23:06:00,
2013-01-05 17:11:00,49.3,38.0,30.80,SW,231,3.0,10.0,65,0.00,,,0.00,Weather View 32 v70,2013-01-05 23:11:00,
2013-01-05 17:16:00,49.4,38.5,30.79,NE,51,1.0,10.0,66,0.00,,,0.00,Weather View 32 v70,2013-01-05 23:16:00,
2013-01-05 17:21:00,49.2,38.3,30.79,South,186,1.0,10.0,66,0.00,,,0.00,Weather View 32 v70,2013-01-05 23:21:00,
2013-01-05 17:26:00,48.8,38.3,30.79,South,186,1.0,10.0,67,0.00,,,0.00,Weather View 32 v70,2013-01-05 23:26:00,
2013-01-05 17:31:00,48.7,38.2,30.80,SW,231,1.0,10.0,67,0.00,,,0.00,Weather View 32 v70,2013-01-05 23:31:00,
2013-01-05 17:36:00,48.6,38.5,30.80,NE,51,0.0,10.0,68,0.00,,,0.00,Weather View 32 v70,2013-01-05 23:36:00,
2013-01-05 17:41:00,48.1,38.0,30.80,East,96,0.0,7.0,68,0.00,,,0.00,Weather View 32 v70,2013-01-05 23:41:00,
2013-01-05 17:46:00,47.7,38.4,30.79,ESE,118,1.0,7.0,70,0.00,,,0.00,Weather View 32 v70,2013-01-05 23:46:00,
2013-01-05 17:51:00,47.6,38.3,30.80,South,186,1.0,6.0,70,0.00,,,0.00,Weather View 32 v70,2013-01-05 23:51:00,
2013-01-05 17:56:00,47.2,37.9,30.80,SE,141,1.0,6.0,70,0.00,,,0.00,Weather View 32 v70,2013-01-05 23:56:00,
2013-01-05 18:01:00,46.7,37.8,30.80,ESE,118,2.0,6.0,71,0.00,,,0.00,Weather View 32 v70,2013-01-06 00:01:00,
2013-01-05 18:06:00,46.3,38.1,30.80,East,96,2.0,5.0,73,0.00,,,0.00,Weather View 32 v70,2013-01-06 00:06:00,
2013-01-05 18:11:00,45.9,38.1,30.80,ENE,73,2.0,3.0,74,0.00,,,0.00,Weather View 32 v70,2013-01-06 00:11:00,
2013-01-05 18:16:00,45.5,37.7,30.80,ENE,73,1.0,3.0,74,0.00,,,0.00,Weather View 32 v70,2013-01-06 00:16:00,
2013-01-05 18:21:00,45.1,37.6,30.81,East,96,3.0,3.0,75,0.00,,,0.00,Weather View 32 v70,2013-01-06 00:21:00,
2013-01-05 18:26:00,44.4,37.3,30.81,East,96,3.0,3.0,76,0.00,,,0.00,Weather View 32 v70,2013-01-06 00:26:00,
2013-01-05 18:31:00,44.1,37.3,30.81,ESE,118,3.0,4.0,77,0.00,,,0.00,Weather View 32 v70,2013-01-06 00:31:00,
2013-01-05 18:36:00,44.1,37.7,30.81,East,96,3.0,4.0,78,0.00,,,0.00,Weather View 32 v70,2013-01-06 00:36:00,
2013-01-05 18:41:00,44.2,37.8,30.80,East,96,3.0,4.0,78,0.00,,,0.00,Weather View 32 v70,2013-01-06 00:41:00,
2013-01-05 18:46:00,43.8,37.7,30.81,ESE,118,3.0,4.0,79,0.00,,,0.00,Weather View 32 v70,2013-01-06 00:46:00,
2013-01-05 18:51:00,44.6,38.5,30.81,SE,141,3.0,4.0,79,0.00,,,0.00,Weather View 32 v70,2013-01-06 00:51:00,
2013-01-05 18:56:00,44.3,37.9,30.81,ESE,118,3.0,4.0,78,0.00,,,0.00,Weather View 32 v70,2013-01-06 00:56:00,
2013-01-05 19:01:00,44.2,38.1,30.81,ENE,73,1.0,4.0,79,0.00,,,0.00,Weather View 32 v70,2013-01-06 01:01:00,
2013-01-05 19:06:00,43.7,37.6,30.81,ENE,73,1.0,4.0,79,0.00,,,0.00,Weather View 32 v70,2013-01-06 01:06:00,
2013-01-05 19:11:00,43.3,37.5,30.81,ENE,73,1.0,4.0,80,0.00,,,0.00,Weather View 32 v70,2013-01-06 01:11:00,
2013-01-05 19:16:00,42.6,36.9,30.81,ENE,73,0.0,4.0,80,0.00,,,0.00,Weather View 32 v70,2013-01-06 01:16:00,
2013-01-05 19:21:00,42.2,36.8,30.82,NE,51,0.0,4.0,81,0.00,,,0.00,Weather View 32 v70,2013-01-06 01:21:00,
2013-01-05 19:26:00,42.1,37.0,30.82,NE,51,0.0,4.0,82,0.00,,,0.00,Weather View 32 v70,2013-01-06 01:26:00,
2013-01-05 19:31:00,41.6,36.8,30.81,NNE,28,0.0,4.0,83,0.00,,,0.00,Weather View 32 v70,2013-01-06 01:31:00,
2013-01-05 19:36:00,41.6,36.8,30.81,East,96,0.0,4.0,83,0.00,,,0.00,Weather View 32 v70,2013-01-06 01:36:00,
2013-01-05 19:41:00,41.8,37.3,30.82,East,96,2.0,4.0,84,0.00,,,0.00,Weather View 32 v70,2013-01-06 01:41:00,
2013-01-05 19:46:00,41.8,37.3,30.82,NNE,28,0.0,4.0,84,0.00,,,0.00,Weather View 32 v70,2013-01-06 01:46:00,
2013-01-05 19:51:00,41.3,36.8,30.82,NNE,28,0.0,4.0,84,0.00,,,0.00,Weather View 32 v70,2013-01-06 01:51:00,
2013-01-05 19:56:00,41.2,36.7,30.82,ENE,73,0.0,3.0,84,0.00,,,0.00,Weather View 32 v70,2013-01-06 01:56:00,
2013-01-05 20:01:00,41.7,37.8,30.82,NE,51,0.0,3.0,86,0.00,,,0.00,Weather View 32 v70,2013-01-06 02:01:00,
2013-01-05 20:06:00,41.5,37.3,30.82,NE,51,0.0,3.0,85,0.00,,,0.00,Weather View 32 v70,2013-01-06 02:06:00,
2013-01-05 20:11:00,41.7,37.5,30.82,NE,51,1.0,3.0,85,0.00,,,0.00,Weather View 32 v70,2013-01-06 02:11:00,
2013-01-05 20:16:00,41.1,36.6,30.82,ENE,73,1.0,3.0,84,0.00,,,0.00,Weather View 32 v70,2013-01-06 02:16:00,
2013-01-05 20:21:00,40.4,35.9,30.82,NE,51,1.0,3.0,84,0.00,,,0.00,Weather View 32 v70,2013-01-06 02:21:00,
2013-01-05 20:26:00,39.8,35.4,30.82,NE,51,0.0,3.0,84,0.00,,,0.00,Weather View 32 v70,2013-01-06 02:26:00,
2013-01-05 20:31:00,39.3,35.2,30.82,NNE,28,0.0,3.0,85,0.00,,,0.00,Weather View 32 v70,2013-01-06 02:31:00,
2013-01-05 20:36:00,39.2,35.7,30.82,NE,51,0.0,3.0,87,0.00,,,0.00,Weather View 32 v70,2013-01-06 02:36:00,
2013-01-05 20:42:00,39.1,35.8,30.82,North,6,0.0,3.0,88,0.00,,,0.00,Weather View 32 v70,2013-01-06 02:42:00,
2013-01-05 20:47:00,39.1,35.8,30.82,NE,51,0.0,2.0,88,0.00,,,0.00,Weather View 32 v70,2013-01-06 02:47:00,
2013-01-05 20:52:00,39.1,36.1,30.81,ESE,118,1.0,2.0,89,0.00,,,0.00,Weather View 32 v70,2013-01-06 02:52:00,
2013-01-05 20:57:00,39.1,36.1,30.81,South,186,1.0,2.0,89,0.00,,,0.00,Weather View 32 v70,2013-01-06 02:57:00,
2013-01-05 21:02:00,39.0,36.0,30.82,ENE,73,0.0,2.0,89,0.00,,,0.00,Weather View 32 v70,2013-01-06 03:02:00,
2013-01-05 21:07:00,38.9,36.2,30.82,ENE,73,0.0,2.0,90,0.00,,,0.00,Weather View 32 v70,2013-01-06 03:07:00,
2013-01-05 21:12:00,39.3,36.6,30.82,NNE,28,0.0,2.0,90,0.00,,,0.00,Weather View 32 v70,2013-01-06 03:12:00,
2013-01-05 21:17:00,39.3,36.6,30.82,NE,51,0.0,2.0,90,0.00,,,0.00,Weather View 32 v70,2013-01-06 03:17:00,
2013-01-05 21:22:00,39.3,36.9,30.81,NE,51,0.0,1.0,91,0.00,,,0.00,Weather View 32 v70,2013-01-06 03:22:00,
2013-01-05 21:27:00,39.4,37.0,30.82,NE,51,0.0,1.0,91,0.00,,,0.00,Weather View 32 v70,2013-01-06 03:27:00,
2013-01-05 21:32:00,38.7,36.0,30.82,NNE,28,0.0,1.0,90,0.00,,,0.00,Weather View 32 v70,2013-01-06 03:32:00,
2013-01-05 21:37:00,38.5,36.1,30.82,NNW,343,1.0,1.0,91,0.00,,,0.00,Weather View 32 v70,2013-01-06 03:37:00,
2013-01-05 21:42:00,38.4,36.0,30.82,NNE,28,0.0,1.0,91,0.00,,,0.00,Weather View 32 v70,2013-01-06 03:42:00,
2013-01-05 21:47:00,38.4,36.0,30.82,NNE,28,0.0,1.0,91,0.00,,,0.00,Weather View 32 v70,2013-01-06 03:47:00,
2013-01-05 21:52:00,37.9,35.2,30.82,NNE,28,0.0,1.0,90,0.00,,,0.00,Weather View 32 v70,2013-01-06 03:52:00,
2013-01-05 21:57:00,37.6,34.9,30.82,NNE,28,0.0,1.0,90,0.00,,,0.00,Weather View 32 v70,2013-01-06 03:57:00,
2013-01-05 22:02:00,38.1,36.0,30.83,NE,51,0.0,1.0,92,0.00,,,0.00,Weather View 32 v70,2013-01-06 04:02:00,
2013-01-05 22:07:00,37.7,35.3,30.83,North,6,0.0,1.0,91,0.00,,,0.00,Weather View 32 v70,2013-01-06 04:07:00,
2013-01-05 22:12:00,37.5,34.8,30.83,ENE,73,1.0,2.0,90,0.00,,,0.00,Weather View 32 v70,2013-01-06 04:12:00,
2013-01-05 22:17:00,37.8,35.4,30.83,NNE,28,0.0,2.0,91,0.00,,,0.00,Weather View 32 v70,2013-01-06 04:17:00,
2013-01-05 22:22:00,37.2,34.5,30.83,NNE,28,0.0,2.0,90,0.00,,,0.00,Weather View 32 v70,2013-01-06 04:22:00,
2013-01-05 22:27:00,37.8,35.7,30.83,NE,51,0.0,2.0,92,0.00,,,0.00,Weather View 32 v70,2013-01-06 04:27:00,
2013-01-05 22:32:00,37.7,35.6,30.83,NE,51,1.0,2.0,92,0.00,,,0.00,Weather View 32 v70,2013-01-06 04:32:00,
2013-01-05 22:37:00,36.5,33.6,30.83,North,6,0.0,2.0,89,0.00,,,0.00,Weather View 32 v70,2013-01-06 04:37:00,
2013-01-05 22:42:00,36.4,33.7,30.84,NNE,28,0.0,2.0,90,0.00,,,0.00,Weather View 32 v70,2013-01-06 04:42:00,
2013-01-05 22:47:00,36.4,34.0,30.84,NE,51,0.0,2.0,91,0.00,,,0.00,Weather View 32 v70,2013-01-06 04:47:00,
2013-01-05 22:52:00,36.1,33.7,30.84,NNE,28,0.0,2.0,91,0.00,,,0.00,Weather View 32 v70,2013-01-06 04:52:00,
2013-01-05 22:57:00,35.6,33.2,30.84,ENE,73,0.0,2.0,91,0.00,,,0.00,Weather View 32 v70,2013-01-06 04:57:00,
2013-01-05 23:00:00,35.6,33.5,30.84,SE,141,3.0,3.0,92,0.00,,,0.00,Weather View 32 v70,2013-01-06 05:00:00,
2013-01-05 23:01:00,35.8,34.0,30.84,SE,141,2.0,4.0,93,0.00,,,0.00,Weather View 32 v70,2013-01-06 05:01:00,
2013-01-05 23:02:00,35.7,33.9,30.84,NE,51,0.0,4.0,93,0.00,,,0.00,Weather View 32 v70,2013-01-06 05:02:00,
2013-01-05 23:06:00,36.3,34.5,30.85,NE,51,0.0,4.0,93,0.00,,,0.00,Weather View 32 v70,2013-01-06 05:06:00,
2013-01-05 23:11:00,36.2,34.6,30.85,NNE,28,0.0,4.0,94,0.00,,,0.00,Weather View 32 v70,2013-01-06 05:11:00,
2013-01-05 23:16:00,36.0,34.4,30.85,NNE,28,0.0,4.0,94,0.00,,,0.00,Weather View 32 v70,2013-01-06 05:16:00,
2013-01-05 23:21:00,35.6,34.0,30.85,NNE,28,0.0,4.0,94,0.00,,,0.00,Weather View 32 v70,2013-01-06 05:21:00,
2013-01-05 23:26:00,35.4,33.8,30.85,NNE,28,0.0,4.0,94,0.00,,,0.00,Weather View 32 v70,2013-01-06 05:26:00,
2013-01-05 23:31:00,35.3,33.7,30.85,North,6,0.0,4.0,94,0.00,,,0.00,Weather View 32 v70,2013-01-06 05:31:00,
2013-01-05 23:36:00,35.3,34.0,30.86,NNE,28,0.0,4.0,95,0.00,,,0.00,Weather View 32 v70,2013-01-06 05:36:00,
2013-01-05 23:41:00,34.9,33.6,30.85,ENE,73,0.0,4.0,95,0.00,,,0.00,Weather View 32 v70,2013-01-06 05:41:00,
2013-01-05 23:46:00,35.1,34.1,30.85,North,6,0.0,4.0,96,0.00,,,0.00,Weather View 32 v70,2013-01-06 05:46:00,
2013-01-05 23:51:00,35.2,34.2,30.85,NNE,28,0.0,4.0,96,0.00,,,0.00,Weather View 32 v70,2013-01-06 05:51:00,
2013-01-05 23:56:00,35.2,34.2,30.86,North,6,0.0,4.0,96,0.00,,,0.00,Weather View 32 v70,2013-01-06 05:56:00,